Flag for Algeria Weather past 2 weeks in Constantine, Algeria

Now
37 °F

Broken clouds.


Feels Like: 29 °F
Forecast: 37 / 45 °F
Wind: 14 mph from Northwest

Location: Constantine Airport

Current Time: Jan 26, 2015 at 12:11:00 PM

Latest Report: Jan 26, 2015 at 11:30 AM


Visibility: 4 mi

Pressure: 30.09 "Hg

Humidity: 87%

Dew point: 34 °F

Location of ConstantineLocation

Historic Weather in Constantine — Graph

°F

Constantine temperature yesterday

Maximum temperature yesterday: 41 °F (at 12:00 AM)
Minimum temperature yesterday: 32 °F (at 9:00 AM)
Average temperature yesterday: 36 °F

Past Weeks' High & Low Weather Summary

 TemperatureHumidityPressure
High68 °F (Jan 15, 2:30 PM)94% (Jan 16, 3:00 AM)30.57 "Hg (Jan 16, 3:00 AM)
Low32 °F (Jan 13, 7:00 AM)25% (Jan 11, 4:00 PM)29.65 "Hg (Jan 22, 2:00 PM)
Average43 °F75%30.07 "Hg
* Reported Jan 11 11:00 AM — Jan 26 11:00 AM, Constantine, Weather by CustomWeather, © 2014

Note: Actual official high and low records may vary slightly from our data, if they occured in-between our weather recording intervals... More about our weather records

Advertising

Constantine weather history for previous 24 hours

 ConditionsComfort  
Time TempWeatherWind HumidityBarometerVisibility
11:00 AM
Jan 26
37 °FBroken clouds.12 mph87%30.09 "Hg4 mi
10:30 AM36 °FLight rain. Broken clouds.16 mph93%30.07 "Hg4 mi
10:00 AM36 °FLight rain. Broken clouds.10 mph93%30.07 "Hg2 mi
9:30 AM36 °FLight rain. Broken clouds.14 mph93%30.07 "Hg3 mi
9:00 AM34 °FLight rain. Broken clouds.7 mph93%30.07 "Hg4 mi
8:30 AM34 °FLight snow. Broken clouds.6 mph93%30.07 "Hg2 mi
8:00 AM34 °FLight rain. Broken clouds.9 mph93%30.04 "Hg2 mi
7:30 AM34 °FLight rain. Partly cloudy.9 mph93%30.04 "Hg4 mi
7:00 AM34 °FLight rain. Partly cloudy.9 mph93%30.04 "Hg4 mi
6:30 AM36 °FLight rain. Partly cloudy.9 mph93%30.04 "Hg4 mi
6:00 AM36 °FPartly cloudy.9 mph93%30.01 "Hg4 mi
5:30 AM34 °FPartly cloudy.7 mph93%30.01 "Hg4 mi
5:00 AM32 °FPartly cloudy.5 mph93%30.01 "Hg4 mi
4:30 AM32 °FFog.No wind93%30.01 "Hg1 mi
3:30 AM34 °FPartly cloudy.9 mph87%30.01 "Hg4 mi
3:00 AM34 °FPartly cloudy.9 mph87%30.01 "Hg3 mi
2:00 AM32 °FLight snow. Partly cloudy.No wind93%30.01 "Hg1 mi
1:30 AM32 °FLight snow. Partly cloudy.No wind93%30.01 "Hg1 mi
1:00 AM32 °FLight snow. Partly cloudy.No wind93%30.01 "Hg1 mi
12:30 AM32 °FLight snow. Partly cloudy.No wind93%30.01 "Hg2 mi
12:00 AM32 °FLight snow. Partly cloudy.No wind93%30.01 "Hg1 mi
11:30 PM
Jan 25
32 °FLight snow. Partly cloudy.7 mph93%29.98 "Hg2 mi
11:00 PM32 °FPartly cloudy.7 mph93%29.98 "Hg2 mi
10:30 PM32 °FLight snow. Mostly cloudy.No wind93%29.98 "Hg1 mi
9:30 PM32 °FLight snow. Partly cloudy.No wind93%29.98 "Hg1 mi
9:00 PM32 °FLight snow. Partly cloudy.2 mph93%29.98 "Hg1 mi
8:30 PM34 °FLight rain. Partly cloudy.9 mph93%29.95 "Hg4 mi
8:00 PM34 °FPartly cloudy.9 mph93%29.95 "Hg4 mi
7:30 PM34 °FLight rain. Partly cloudy.12 mph87%29.95 "Hg2 mi
7:00 PM34 °FRain. Partly cloudy.16 mph87%29.95 "Hg2 mi
6:30 PM34 °FLight rain. Partly cloudy.16 mph87%29.92 "Hg4 mi
6:00 PM36 °FLight rain. Partly cloudy.16 mph87%29.92 "Hg4 mi
5:30 PM34 °FBroken clouds.12 mph93%29.89 "Hg4 mi
5:00 PM36 °FLight snow. Broken clouds.12 mph87%29.92 "Hg2 mi
4:30 PM34 °FLight rain. Broken clouds.9 mph93%29.89 "Hg2 mi
4:00 PM36 °FLight rain. Broken clouds.18 mph87%29.86 "Hg4 mi
3:30 PM37 °FLight rain. Broken clouds.21 mph87%29.86 "Hg4 mi
3:00 PM37 °FLight rain. Broken clouds.14 mph87%29.86 "Hg4 mi
2:30 PM36 °FBroken clouds.16 mph93%29.86 "Hg4 mi
2:00 PM34 °FLight snow. Broken clouds.16 mph87%29.86 "Hg2 mi
1:30 PM36 °FLight rain. Broken clouds.28 mph93%29.86 "Hg4 mi
1:00 PM34 °FLight snow. Broken clouds.21 mph87%29.89 "Hg2 mi
12:30 PM34 °FLight snow. Broken clouds.20 mph87%29.89 "Hg2 mi
12:00 PM37 °FLight rain. Broken clouds.21 mph81%29.92 "Hg4 mi
Weather by CustomWeather, © 2014

See weather overviewHow to use our weather pages